Weather History for Allentown, PA

Change the Weather History Date:

Monday, October 14, 2013

  Actual Average Record
Temperature  
Mean Temperature 57 °F 53 °F  
Max Temperature 69 °F 64 °F 86 °F (1975)
Min Temperature 44 °F 42 °F 29 °F (1953)
Degree Days  
Heating Degree Days 8 12  
Month to date heating degree days 51 142  
Since 1 July heating degree days 175 257  
Cooling Degree Days 0 0  
Month to date cooling degree days 22 3  
Year to date cooling degree days 925 753  
Growing Degree Days 6 (Base 50)    
Moisture  
Dew Point 45 °F    
Average Humidity 69    
Maximum Humidity 100    
Minimum Humidity 37    
Precipitation  
Precipitation 0.00 in 0.13 in 2.21 in (1955)
Month to date precipitation 2.27 1.94  
Year to date precipitation 39.19 36.33  
Snow  
Snow 0.00 in 0.00 in 0.00 in ()
Month to date snowfall 0.0 0.0  
Since 1 July snowfall 0.0 0.0  
Since 1 September snowfall 0.0 0.0  
Snow Depth 0.00 in    
Sea Level Pressure  
Sea Level Pressure 30.33 in    
Wind  
Wind Speed 1 mph (NE)    
Max Wind Speed 7 mph    
Max Gust Speed 9 mph    
Visibility 5 miles    
Events Fog    
T = Trace of Precipitation, MM = Missing Value Source: NWS Daily Summary

Daily Weather History Graph

Daily Weather History Graph

Search for Another Location

Airport:

Trip Planner

Search our weather history database for the weather conditions in past years. The results will help you decide how hot, cold, wet, or windy it might be!

Date:

Astronomy

Oct. 14, 2013 Rise Set
Actual Time 7:12 AM EDT 6:22 PM EDT
Civil Twilight 6:44 AM EDT 6:50 PM EDT
Nautical Twilight 6:12 AM EDT 7:21 PM EDT
Astronomical Twilight 5:41 AM EDT 7:53 PM EDT
Moon 3:52 PM EDT (10/14) 2:24 AM EDT (10/14)
Length of Visible Light 12h 05m
Length of Day
11h 10m
Waxing Gibbous, 79% of the Moon is Illuminated
Oct 14
Waxing Gibbous
Oct 18
Full
Oct 26
Last Quarter
Nov 3
New
Nov 10
First Quarter

Hourly Weather History & Observations

Time (EDT) Temp. Windchill Dew Point Humidity Pressure Visibility Wind Dir Wind Speed Gust Speed Precip Events Conditions
12:13 AM 51.8 °F - 48.2 °F 88% 30.37 in 10.0 mi Calm Calm - N/A   Scattered Clouds
12:51 AM 50.0 °F - 46.9 °F 89% 30.37 in 10.0 mi North 3.5 mph - N/A   Clear
1:51 AM 48.9 °F - 46.9 °F 93% 30.36 in 6.0 mi Calm Calm - N/A   Clear
2:20 AM 46.4 °F - 44.6 °F 93% 30.35 in 2.5 mi Calm Calm - N/A   Clear
2:51 AM 48.9 °F - 46.9 °F 93% 30.35 in 5.0 mi Calm Calm - N/A   Clear
3:04 AM 48.2 °F - 46.4 °F 93% 30.34 in 1.8 mi Calm Calm - N/A   Clear
3:16 AM 46.4 °F - 44.6 °F 93% 30.35 in 3.0 mi Calm Calm - N/A   Clear
3:23 AM 46.4 °F - 44.6 °F 93% 30.35 in 1.8 mi Calm Calm - N/A   Clear
3:34 AM 44.6 °F - 44.6 °F 100% 30.35 in 0.5 mi Calm Calm - N/A Fog Fog
3:44 AM 46.4 °F - 44.6 °F 93% 30.35 in 0.2 mi Calm Calm - N/A Fog Fog
3:51 AM 46.9 °F - 44.1 °F 90% 30.35 in 0.2 mi Calm Calm - N/A Fog Fog
4:18 AM 46.4 °F - 44.6 °F 93% 30.35 in 0.8 mi Calm Calm - N/A   Mist
4:40 AM 46.4 °F - 44.6 °F 93% 30.36 in 2.0 mi Calm Calm - N/A   Overcast
4:49 AM 46.4 °F - 44.6 °F 93% 30.36 in 4.0 mi Calm Calm - N/A   Overcast
4:51 AM 46.9 °F - 46.0 °F 97% 30.36 in 5.0 mi Calm Calm - N/A   Overcast
5:51 AM 48.9 °F - 46.0 °F 90% 30.36 in 9.0 mi Calm Calm - N/A   Mostly Cloudy
6:19 AM 46.4 °F - 44.6 °F 93% 30.35 in 5.0 mi Calm Calm - N/A   Scattered Clouds
6:40 AM 44.6 °F - 44.6 °F 100% 30.35 in 1.8 mi Calm Calm - N/A   Clear
6:51 AM 46.0 °F - 44.1 °F 93% 30.36 in 1.8 mi Calm Calm - N/A   Clear
6:58 AM 44.6 °F 43.1 °F 44.6 °F 100% 30.35 in 3.0 mi North 3.5 mph - N/A   Clear
7:10 AM 44.6 °F 43.1 °F 42.8 °F 93% 30.35 in 1.2 mi North 3.5 mph - N/A   Scattered Clouds
7:12 AM 44.6 °F - 42.8 °F 93% 30.35 in 0.8 mi Calm Calm - N/A   Mist
7:24 AM 44.6 °F - 42.8 °F 93% 30.36 in 0.2 mi Calm Calm - N/A Fog Fog
7:31 AM 44.6 °F - 42.8 °F 93% 30.36 in 0.5 mi Calm Calm - N/A Fog Fog
7:39 AM 44.6 °F - 44.6 °F 100% 30.36 in 1.2 mi Calm Calm - N/A   Scattered Clouds
7:46 AM 44.6 °F - 44.6 °F 100% 30.36 in 0.8 mi Calm Calm - N/A   Mist
7:51 AM 45.0 °F - 44.1 °F 97% 30.36 in 0.2 mi Calm Calm - N/A Fog Fog
8:03 AM 46.4 °F - 44.6 °F 93% 30.36 in 1.0 mi Calm Calm - N/A   Mist
8:07 AM 46.4 °F - 44.6 °F 93% 30.36 in 2.0 mi Calm Calm - N/A   Partly Cloudy
8:15 AM 46.4 °F - 46.4 °F 100% 30.36 in 1.0 mi Calm Calm - N/A   Mist
8:25 AM 48.2 °F - 46.4 °F 93% 30.36 in 2.5 mi Calm Calm - N/A   Partly Cloudy
8:32 AM 50.0 °F - 46.4 °F 87% 30.36 in 6.0 mi Calm Calm - N/A   Partly Cloudy
8:51 AM 51.1 °F - 48.0 °F 89% 30.37 in 7.0 mi ENE 3.5 mph - N/A   Clear
9:51 AM 54.0 °F - 48.9 °F 83% 30.38 in 8.0 mi NE 5.8 mph - N/A   Clear
10:51 AM 57.9 °F - 48.0 °F 70% 30.37 in 10.0 mi East 4.6 mph - N/A   Clear
11:51 AM 60.1 °F - 48.0 °F 64% 30.34 in 10.0 mi Variable 3.5 mph - N/A   Clear
12:51 PM 63.0 °F - 46.9 °F 56% 30.31 in 10.0 mi SSE 4.6 mph - N/A   Clear
1:51 PM 64.9 °F - 46.9 °F 52% 30.29 in 10.0 mi Calm Calm - N/A   Clear
2:51 PM 66.0 °F - 45.0 °F 47% 30.27 in 10.0 mi Calm Calm - N/A   Clear
3:51 PM 69.1 °F - 43.0 °F 39% 30.25 in 10.0 mi Calm Calm - N/A   Clear
4:51 PM 66.9 °F - 43.0 °F 42% 30.25 in 10.0 mi Calm Calm - N/A   Clear
5:51 PM 66.9 °F - 43.0 °F 42% 30.25 in 10.0 mi Calm Calm - N/A   Clear
6:51 PM 62.1 °F - 44.1 °F 52% 30.26 in 10.0 mi Calm Calm - N/A   Clear
7:51 PM 57.0 °F - 46.9 °F 69% 30.27 in 10.0 mi Calm Calm - N/A   Clear
8:51 PM 54.0 °F - 46.0 °F 75% 30.27 in 10.0 mi Calm Calm - N/A   Clear
9:51 PM 54.0 °F - 46.9 °F 77% 30.27 in 10.0 mi Calm Calm - N/A   Clear
10:51 PM 51.1 °F - 46.0 °F 83% 30.27 in 10.0 mi Calm Calm - N/A   Clear
11:51 PM 51.1 °F - 46.0 °F 83% 30.26 in 10.0 mi Calm Calm - N/A   Clear